Location: Navalmoral
(40.4603°N, 4.7686°W)
Time: 10:25:44
(UTC+00:00)

Cosmos 1727 Rocket - Pass Details

Date: 05 August 2024
Orbit: 960 x 997 km, 82.9° (Epoch: 18 September)

Event Time Altitude Azimuth Distance (km) Brightness Sun altitude
Rises 20:37:42 0° 351° (N) 3,690 7.7 -12.3°
Reaches altitude 10° 20:40:14 10° 351° (N) 2,733 7.0 -12.7°
Maximum altitude 20:46:30 84° 265° (W) 980 4.1 -13.6°
Drops below altitude 10° 20:52:40 10° 178° (S) 2,692 5.9 -14.6°
Enters shadow 20:53:42 - 177° (S) 3,085 6.2 -14.7°
